PTN42RT LPMA-LPPT

Flight info

Callsign PTN42RT
Flight time 1h 28m
Altitude 40000
Route DEGUN DCT NARTA DCT ESUTI
Aircraft PC24/L-SDFGRWY/S

Departure

Time 2026-05-06 13:45
Airport Cristiano Ronaldo International Airport (LPMA)

Arrival

Time 2026-05-06 15:13
Airport Lisbon Humberto Delgado Airport (LPPT)
Time Latitude Longitude Altitude Speed Heading
2026-05-06 13:29 32.69609 -16.77316 172 ft 0 kts 137°
2026-05-06 13:38 32.69623 -16.77331 172 ft 4 kts 140°
2026-05-06 13:38 32.69645 -16.77351 172 ft 4 kts 148°
2026-05-06 13:38 32.69669 -16.77365 172 ft 4 kts 169°
2026-05-06 13:38 32.69690 -16.77362 172 ft 2 kts 225°
2026-05-06 13:39 32.69691 -16.77361 172 ft 0 kts 226°
2026-05-06 13:41 32.69682 -16.77372 172 ft 6 kts 225°
2026-05-06 13:41 32.69634 -16.77432 172 ft 14 kts 226°
2026-05-06 13:41 32.69545 -16.77542 172 ft 22 kts 227°
2026-05-06 13:42 32.69440 -16.77673 172 ft 21 kts 226°
2026-05-06 13:42 32.69339 -16.77794 172 ft 20 kts 225°
2026-05-06 13:42 32.69289 -16.77916 172 ft 15 kts 270°
2026-05-06 13:42 32.69281 -16.78031 172 ft 13 kts 250°
2026-05-06 13:43 32.69225 -16.78106 172 ft 12 kts 225°
2026-05-06 13:43 32.69156 -16.78187 172 ft 16 kts 225°
2026-05-06 13:43 32.69067 -16.78290 172 ft 19 kts 225°
2026-05-06 13:43 32.68960 -16.78392 172 ft 20 kts 194°
2026-05-06 13:44 32.68894 -16.78464 172 ft 12 kts 323°
2026-05-06 13:44 32.68928 -16.78452 172 ft 0 kts 46°
2026-05-06 13:44 32.68974 -16.78398 172 ft 41 kts 44°
2026-05-06 13:45 32.69382 -16.77923 172 ft 119 kts 41°
2026-05-06 13:45 32.70840 -16.76050 952 ft 179 kts 51°
2026-05-06 13:45 32.71231 -16.74646 1709 ft 200 kts 95°
2026-05-06 13:46 32.70692 -16.73039 2594 ft 211 kts 111°
2026-05-06 13:46 32.70005 -16.71476 3737 ft 218 kts 118°
2026-05-06 13:46 32.69289 -16.69855 4880 ft 224 kts 107°
2026-05-06 13:46 32.68996 -16.68044 6011 ft 225 kts 97°
2026-05-06 13:47 32.68602 -16.66215 7148 ft 231 kts 108°
2026-05-06 13:47 32.68017 -16.64443 8250 ft 235 kts 110°
2026-05-06 13:47 32.67411 -16.62644 9409 ft 233 kts 108°
2026-05-06 13:47 32.66842 -16.60876 10467 ft 226 kts 107°
2026-05-06 13:48 32.66294 -16.59151 11401 ft 221 kts 108°
2026-05-06 13:48 32.65769 -16.57458 12283 ft 217 kts 103°
2026-05-06 13:48 32.65618 -16.55658 12869 ft 227 kts 82°
2026-05-06 13:48 32.66017 -16.53757 13036 ft 253 kts 61°
2026-05-06 13:49 32.67101 -16.52000 13046 ft 279 kts 41°
2026-05-06 13:49 32.68586 -16.50323 13044 ft 310 kts 40°
2026-05-06 13:49 32.70233 -16.48489 13039 ft 337 kts 40°
2026-05-06 13:49 32.71949 -16.46530 13029 ft 345 kts 41°
2026-05-06 13:50 32.73646 -16.44570 13344 ft 331 kts 41°
2026-05-06 13:50 32.75252 -16.42731 13631 ft 312 kts 40°
2026-05-06 13:50 32.76840 -16.40931 14066 ft 312 kts 40°
2026-05-06 13:50 32.78379 -16.39175 14678 ft 312 kts 40°
2026-05-06 13:51 32.79954 -16.37374 15320 ft 316 kts 40°
2026-05-06 13:51 32.81550 -16.35547 15985 ft 320 kts 40°
2026-05-06 13:51 32.83160 -16.33705 16668 ft 323 kts 40°
2026-05-06 13:51 32.84788 -16.31840 17357 ft 326 kts 40°
2026-05-06 13:52 32.86424 -16.29966 18062 ft 328 kts 40°
2026-05-06 13:52 32.88071 -16.28077 18741 ft 329 kts 40°
2026-05-06 13:52 32.89721 -16.26184 19365 ft 330 kts 40°
2026-05-06 13:52 32.91376 -16.24286 20006 ft 331 kts 39°
2026-05-06 13:53 32.93036 -16.22380 20657 ft 331 kts 39°
2026-05-06 13:53 32.94695 -16.20474 21312 ft 332 kts 39°
2026-05-06 13:53 32.96358 -16.18561 21981 ft 333 kts 39°
2026-05-06 13:53 32.98025 -16.16646 22658 ft 333 kts 39°
2026-05-06 13:54 32.99695 -16.14723 23302 ft 336 kts 39°
2026-05-06 13:54 33.01396 -16.12770 23594 ft 348 kts 39°
2026-05-06 13:54 33.03168 -16.10736 23607 ft 367 kts 39°
2026-05-06 13:54 33.05049 -16.08565 23631 ft 384 kts 39°
2026-05-06 13:55 33.07000 -16.06309 23677 ft 397 kts 39°
2026-05-06 13:55 33.08992 -16.04006 24097 ft 398 kts 39°
2026-05-06 13:55 33.10983 -16.01703 24492 ft 399 kts 39°
2026-05-06 13:55 33.12983 -15.99396 24892 ft 401 kts 39°
2026-05-06 13:56 33.14990 -15.97076 25238 ft 403 kts 39°
2026-05-06 13:56 33.17003 -15.94744 25761 ft 398 kts 39°
2026-05-06 13:56 33.18975 -15.92451 26195 ft 400 kts 39°
2026-05-06 13:56 33.21004 -15.90116 26298 ft 408 kts 39°
2026-05-06 13:57 33.23011 -15.87786 26675 ft 408 kts 39°
2026-05-06 13:57 33.25049 -15.85415 26982 ft 410 kts 39°
2026-05-06 13:57 33.27098 -15.83035 27294 ft 411 kts 39°
2026-05-06 13:57 33.29154 -15.80649 27583 ft 412 kts 39°
2026-05-06 13:58 33.31217 -15.78252 27736 ft 417 kts 39°
2026-05-06 13:58 33.33315 -15.75812 27848 ft 421 kts 39°
2026-05-06 13:58 33.35409 -15.73368 28115 ft 422 kts 39°
2026-05-06 13:58 33.37514 -15.70915 28334 ft 423 kts 39°
2026-05-06 13:59 33.39627 -15.68453 28558 ft 424 kts 39°
2026-05-06 13:59 33.41743 -15.65985 28766 ft 424 kts 39°
2026-05-06 13:59 33.43898 -15.63570 28946 ft 425 kts 38°
2026-05-06 13:59 33.46063 -15.61139 29094 ft 427 kts 38°
2026-05-06 14:00 33.48224 -15.58691 29286 ft 428 kts 38°
2026-05-06 14:00 33.50376 -15.56264 29740 ft 421 kts 38°
2026-05-06 14:00 33.52491 -15.53891 30055 ft 417 kts 37°
2026-05-06 14:00 33.54556 -15.51559 30702 ft 408 kts 37°
2026-05-06 14:01 33.58746 -15.46841 31004 ft 412 kts 38°
2026-05-06 14:01 33.60833 -15.44480 31237 ft 412 kts 38°
2026-05-06 14:01 33.62920 -15.42123 31454 ft 413 kts 38°
2026-05-06 14:02 33.65009 -15.39763 31678 ft 413 kts 38°
2026-05-06 14:02 33.67099 -15.37398 31904 ft 413 kts 38°
2026-05-06 14:02 33.69192 -15.35028 32119 ft 413 kts 38°
2026-05-06 14:02 33.71282 -15.32659 32341 ft 413 kts 38°
2026-05-06 14:03 33.73376 -15.30285 32562 ft 413 kts 38°
2026-05-06 14:03 33.75465 -15.27915 32780 ft 413 kts 38°
2026-05-06 14:03 33.77533 -15.25566 32990 ft 414 kts 38°
2026-05-06 14:03 33.79624 -15.23190 33294 ft 412 kts 38°
2026-05-06 14:04 33.81698 -15.20830 33535 ft 411 kts 38°
2026-05-06 14:04 33.83776 -15.18467 33739 ft 411 kts 38°
2026-05-06 14:04 33.85853 -15.16103 33955 ft 411 kts 38°
2026-05-06 14:04 33.87933 -15.13732 34150 ft 411 kts 38°
2026-05-06 14:05 33.90008 -15.11366 34341 ft 411 kts 38°
2026-05-06 14:05 33.92076 -15.09005 34546 ft 410 kts 38°
2026-05-06 14:05 33.94147 -15.06640 34745 ft 409 kts 38°
2026-05-06 14:05 33.96209 -15.04285 34941 ft 408 kts 38°
2026-05-06 14:06 33.98266 -15.01932 35138 ft 407 kts 38°
2026-05-06 14:06 34.00320 -14.99582 35335 ft 407 kts 38°
2026-05-06 14:06 34.02370 -14.97234 35530 ft 406 kts 38°
2026-05-06 14:06 34.04413 -14.94892 35727 ft 405 kts 38°
2026-05-06 14:07 34.06455 -14.92552 35863 ft 407 kts 38°
2026-05-06 14:07 34.08518 -14.90187 35947 ft 409 kts 38°
2026-05-06 14:07 34.10575 -14.87822 36187 ft 407 kts 38°
2026-05-06 14:07 34.12624 -14.85466 36376 ft 407 kts 38°
2026-05-06 14:08 34.14645 -14.83143 36563 ft 406 kts 38°
2026-05-06 14:08 34.16691 -14.80790 36753 ft 405 kts 38°
2026-05-06 14:08 34.18731 -14.78440 36934 ft 405 kts 38°
2026-05-06 14:08 34.20764 -14.76097 37123 ft 404 kts 38°
2026-05-06 14:09 34.22804 -14.73744 37301 ft 403 kts 38°
2026-05-06 14:09 34.24837 -14.71399 37490 ft 403 kts 38°
2026-05-06 14:09 34.26859 -14.69063 37679 ft 402 kts 38°
2026-05-06 14:09 34.28854 -14.66758 37850 ft 401 kts 37°
2026-05-06 14:10 34.30877 -14.64418 38032 ft 401 kts 37°
2026-05-06 14:10 34.32886 -14.62093 38215 ft 400 kts 37°
2026-05-06 14:10 34.34895 -14.59767 38392 ft 399 kts 37°
2026-05-06 14:10 34.36900 -14.57443 38574 ft 399 kts 37°
2026-05-06 14:11 34.40945 -14.52755 38721 ft 404 kts 38°
2026-05-06 14:11 34.42973 -14.50396 38866 ft 404 kts 38°
2026-05-06 14:11 34.45002 -14.48037 38969 ft 404 kts 38°
2026-05-06 14:12 34.47036 -14.45673 39077 ft 405 kts 38°
2026-05-06 14:12 34.49073 -14.43304 39184 ft 405 kts 38°
2026-05-06 14:12 34.51105 -14.40936 39289 ft 405 kts 38°
2026-05-06 14:12 34.53140 -14.38564 39407 ft 405 kts 38°
2026-05-06 14:13 34.55157 -14.36210 39601 ft 404 kts 38°
2026-05-06 14:13 34.57152 -14.33883 39875 ft 399 kts 38°
2026-05-06 14:13 34.59141 -14.31556 40097 ft 397 kts 38°
2026-05-06 14:13 34.61138 -14.29227 40210 ft 398 kts 38°
2026-05-06 14:14 34.63135 -14.26893 40344 ft 398 kts 38°
2026-05-06 14:14 34.65132 -14.24555 40480 ft 399 kts 38°
2026-05-06 14:14 34.67127 -14.22216 40645 ft 399 kts 38°
2026-05-06 14:14 34.69132 -14.19870 40725 ft 401 kts 38°
2026-05-06 14:15 34.73169 -14.15133 40929 ft 404 kts 39°
2026-05-06 14:15 34.75188 -14.12757 41057 ft 404 kts 39°
2026-05-06 14:15 34.77211 -14.10380 41186 ft 405 kts 39°
2026-05-06 14:16 34.79239 -14.07998 41313 ft 405 kts 39°
2026-05-06 14:16 34.81237 -14.05645 41441 ft 406 kts 39°
2026-05-06 14:16 34.83270 -14.03250 41571 ft 406 kts 39°
2026-05-06 14:16 34.85302 -14.00854 41701 ft 406 kts 39°
2026-05-06 14:17 34.87337 -13.98455 41831 ft 407 kts 39°
2026-05-06 14:17 34.89370 -13.96054 41961 ft 407 kts 39°
2026-05-06 14:17 34.91405 -13.93651 42083 ft 408 kts 39°
2026-05-06 14:17 34.93440 -13.91244 42206 ft 408 kts 39°
2026-05-06 14:18 34.97497 -13.86441 42516 ft 408 kts 39°
2026-05-06 14:18 35.01587 -13.81598 42641 ft 412 kts 40°
2026-05-06 14:19 35.05006 -13.77535 42848 ft 412 kts 40°
2026-05-06 14:19 35.07088 -13.75057 42974 ft 413 kts 40°
2026-05-06 14:19 35.09149 -13.72613 43092 ft 413 kts 40°
2026-05-06 14:20 35.13279 -13.67701 43096 ft 420 kts 40°
2026-05-06 14:20 35.17493 -13.62675 43098 ft 425 kts 40°
2026-05-06 14:21 35.21758 -13.57585 43103 ft 430 kts 40°
2026-05-06 14:21 35.26041 -13.52462 43100 ft 434 kts 40°
2026-05-06 14:22 35.30358 -13.47291 43084 ft 434 kts 40°
2026-05-06 14:22 35.34680 -13.42109 43083 ft 434 kts 40°
2026-05-06 14:23 35.38995 -13.36923 43086 ft 434 kts 40°
2026-05-06 14:23 35.43281 -13.31766 43086 ft 434 kts 40°
2026-05-06 14:24 35.47585 -13.26579 43085 ft 431 kts 40°
2026-05-06 14:24 35.51841 -13.21441 43089 ft 428 kts 40°
2026-05-06 14:25 35.56104 -13.16290 43091 ft 432 kts 40°
2026-05-06 14:25 35.60402 -13.11085 43083 ft 436 kts 41°
2026-05-06 14:26 35.64737 -13.05827 43087 ft 439 kts 41°
2026-05-06 14:26 35.69080 -13.00550 43085 ft 438 kts 41°
2026-05-06 14:27 35.73408 -12.95284 43082 ft 437 kts 41°
2026-05-06 14:27 35.77696 -12.90058 43076 ft 435 kts 41°
2026-05-06 14:28 35.81996 -12.84808 43083 ft 434 kts 41°
2026-05-06 14:28 35.86285 -12.79564 43085 ft 433 kts 41°
2026-05-06 14:29 35.90570 -12.74318 43074 ft 435 kts 41°
2026-05-06 14:29 35.94889 -12.69021 43083 ft 440 kts 41°
2026-05-06 14:30 35.99221 -12.63698 43086 ft 442 kts 41°
2026-05-06 14:30 36.03575 -12.58339 43077 ft 440 kts 41°
2026-05-06 14:31 36.07959 -12.53143 43072 ft 437 kts 39°
2026-05-06 14:31 36.12428 -12.48048 43073 ft 436 kts 39°
2026-05-06 14:32 36.16873 -12.42955 43067 ft 434 kts 39°
2026-05-06 14:32 36.21305 -12.37880 43063 ft 436 kts 39°
2026-05-06 14:33 36.25780 -12.32742 43075 ft 441 kts 39°
2026-05-06 14:33 36.30269 -12.27581 43076 ft 443 kts 39°
2026-05-06 14:34 36.34775 -12.22389 43071 ft 441 kts 39°
2026-05-06 14:34 36.39262 -12.17215 43067 ft 439 kts 39°
2026-05-06 14:35 36.43733 -12.12049 43063 ft 438 kts 39°
2026-05-06 14:35 36.48180 -12.06902 43060 ft 436 kts 39°
2026-05-06 14:36 36.52622 -12.01753 43064 ft 438 kts 39°
2026-05-06 14:36 36.57098 -11.96555 43072 ft 442 kts 39°
2026-05-06 14:37 36.61580 -11.91341 43071 ft 444 kts 39°
2026-05-06 14:37 36.66090 -11.86086 43065 ft 443 kts 40°
2026-05-06 14:38 36.70577 -11.80849 43058 ft 441 kts 40°
2026-05-06 14:38 36.75039 -11.75634 43054 ft 439 kts 40°
2026-05-06 14:39 36.79482 -11.70430 43051 ft 438 kts 40°
2026-05-06 14:39 36.83934 -11.65209 43053 ft 439 kts 40°
2026-05-06 14:40 36.88391 -11.59972 43056 ft 441 kts 40°
2026-05-06 14:40 36.92861 -11.54713 43054 ft 442 kts 40°
2026-05-06 14:41 36.97309 -11.49466 43061 ft 441 kts 40°
2026-05-06 14:41 37.01775 -11.44195 43062 ft 441 kts 40°
2026-05-06 14:42 37.06247 -11.38904 43061 ft 441 kts 40°
2026-05-06 14:42 37.10705 -11.33622 43061 ft 441 kts 40°
2026-05-06 14:43 37.15151 -11.28344 43050 ft 436 kts 40°
2026-05-06 14:43 37.19511 -11.23160 42605 ft 432 kts 40°
2026-05-06 14:44 37.21701 -11.20557 42047 ft 433 kts 40°
2026-05-06 14:44 37.23878 -11.17960 41481 ft 431 kts 40°
2026-05-06 14:44 37.26048 -11.15370 40911 ft 428 kts 40°
2026-05-06 14:45 37.30298 -11.10297 39798 ft 420 kts 40°
2026-05-06 14:45 37.32410 -11.07774 39250 ft 417 kts 40°
2026-05-06 14:45 37.34504 -11.05267 38697 ft 413 kts 40°
2026-05-06 14:45 37.36581 -11.02782 38099 ft 410 kts 40°
2026-05-06 14:46 37.38635 -11.00319 37557 ft 407 kts 40°
2026-05-06 14:46 37.40687 -10.97861 37023 ft 408 kts 40°
2026-05-06 14:46 37.42756 -10.95380 36485 ft 414 kts 40°
2026-05-06 14:46 37.44856 -10.92859 35962 ft 421 kts 40°
2026-05-06 14:47 37.46992 -10.90290 35373 ft 427 kts 40°
2026-05-06 14:47 37.49120 -10.87726 34824 ft 429 kts 41°
2026-05-06 14:47 37.51286 -10.85117 34246 ft 429 kts 41°
2026-05-06 14:47 37.53444 -10.82518 33638 ft 428 kts 41°
2026-05-06 14:48 37.55587 -10.79932 33072 ft 425 kts 41°
2026-05-06 14:48 37.57724 -10.77352 32510 ft 424 kts 40°
2026-05-06 14:48 37.59866 -10.74766 31949 ft 426 kts 40°
2026-05-06 14:48 37.61982 -10.72208 31394 ft 427 kts 40°
2026-05-06 14:49 37.64135 -10.69602 30825 ft 429 kts 40°
2026-05-06 14:49 37.66292 -10.66987 30257 ft 430 kts 40°
2026-05-06 14:49 37.68458 -10.64363 29638 ft 431 kts 40°
2026-05-06 14:49 37.70613 -10.61748 29073 ft 430 kts 40°
2026-05-06 14:50 37.72771 -10.59128 28507 ft 431 kts 41°
2026-05-06 14:50 37.74941 -10.56492 27936 ft 433 kts 41°
2026-05-06 14:50 37.77113 -10.53848 27359 ft 434 kts 41°
2026-05-06 14:50 37.79299 -10.51188 26784 ft 436 kts 41°
2026-05-06 14:51 37.81478 -10.48532 26209 ft 434 kts 41°
2026-05-06 14:51 37.83644 -10.45890 25640 ft 429 kts 41°
2026-05-06 14:51 37.85780 -10.43279 25067 ft 425 kts 42°
2026-05-06 14:51 37.87799 -10.40611 24599 ft 412 kts 45°
2026-05-06 14:52 37.89702 -10.38040 24157 ft 399 kts 45°
2026-05-06 14:52 37.91599 -10.35506 23720 ft 394 kts 45°
2026-05-06 14:52 37.93489 -10.32985 23243 ft 395 kts 45°
2026-05-06 14:52 37.95373 -10.30453 22788 ft 394 kts 45°
2026-05-06 14:53 37.97246 -10.27930 22363 ft 392 kts 45°
2026-05-06 14:53 37.99115 -10.25421 21919 ft 390 kts 45°
2026-05-06 14:53 38.00969 -10.22927 21487 ft 387 kts 45°
2026-05-06 14:53 38.02811 -10.20445 21058 ft 384 kts 45°
2026-05-06 14:54 38.04635 -10.17986 20633 ft 382 kts 45°
2026-05-06 14:54 38.06448 -10.15540 20210 ft 379 kts 46°
2026-05-06 14:54 38.08253 -10.13104 19788 ft 378 kts 45°
2026-05-06 14:54 38.10044 -10.10685 19374 ft 374 kts 46°
2026-05-06 14:55 38.11818 -10.08285 18962 ft 372 kts 45°
2026-05-06 14:55 38.13585 -10.05896 18538 ft 368 kts 45°
2026-05-06 14:55 38.15335 -10.03528 18115 ft 366 kts 46°
2026-05-06 14:55 38.17118 -10.01268 17692 ft 360 kts 38°
2026-05-06 14:56 38.19169 -9.99478 17298 ft 357 kts 27°
2026-05-06 14:56 38.21413 -9.98179 16901 ft 350 kts 19°
2026-05-06 14:56 38.23626 -9.97024 16519 ft 337 kts 20°
2026-05-06 14:56 38.25762 -9.95888 16143 ft 327 kts 20°
2026-05-06 14:57 38.27811 -9.94811 15790 ft 319 kts 21°
2026-05-06 14:57 38.29858 -9.93744 15441 ft 317 kts 20°
2026-05-06 14:57 38.31902 -9.92671 15091 ft 317 kts 21°
2026-05-06 14:57 38.33937 -9.91597 14741 ft 316 kts 19°
2026-05-06 14:58 38.35967 -9.90528 14390 ft 315 kts 21°
2026-05-06 14:58 38.37989 -9.89462 14028 ft 314 kts 21°
2026-05-06 14:58 38.40006 -9.88399 13675 ft 313 kts 20°
2026-05-06 14:58 38.42007 -9.87343 13316 ft 309 kts 21°
2026-05-06 14:59 38.43984 -9.86294 12971 ft 306 kts 20°
2026-05-06 14:59 38.45948 -9.85260 12631 ft 303 kts 19°
2026-05-06 14:59 38.47891 -9.84236 12286 ft 301 kts 19°
2026-05-06 14:59 38.49821 -9.83212 11917 ft 300 kts 21°
2026-05-06 15:00 38.51630 -9.81898 11560 ft 300 kts 34°
2026-05-06 15:00 38.53169 -9.80105 11224 ft 300 kts 47°
2026-05-06 15:00 38.54355 -9.77963 10896 ft 300 kts 60°
2026-05-06 15:00 38.55164 -9.75519 10561 ft 298 kts 72°
2026-05-06 15:01 38.55691 -9.72965 10236 ft 296 kts 73°
2026-05-06 15:01 38.56222 -9.70474 9904 ft 283 kts 72°
2026-05-06 15:01 38.56725 -9.68107 9562 ft 269 kts 73°
2026-05-06 15:01 38.57201 -9.65825 9260 ft 263 kts 73°
2026-05-06 15:02 38.57675 -9.63564 8920 ft 264 kts 73°
2026-05-06 15:02 38.57961 -9.61253 8506 ft 266 kts 94°
2026-05-06 15:02 38.57452 -9.58999 8205 ft 263 kts 111°
2026-05-06 15:02 38.56554 -9.56982 7996 ft 260 kts 126°
2026-05-06 15:03 38.55324 -9.55356 7995 ft 259 kts 140°
2026-05-06 15:03 38.53779 -9.54147 8000 ft 266 kts 156°
2026-05-06 15:03 38.52099 -9.53136 7983 ft 267 kts 141°
2026-05-06 15:03 38.51092 -9.51195 7990 ft 266 kts 104°
2026-05-06 15:04 38.51154 -9.48899 7994 ft 259 kts 71°
2026-05-06 15:04 38.51848 -9.46755 7686 ft 263 kts 63°
2026-05-06 15:04 38.52385 -9.45321 7182 ft 265 kts 63°
2026-05-06 15:04 38.53104 -9.43275 7071 ft 244 kts 66°
2026-05-06 15:05 38.53712 -9.41304 6787 ft 233 kts 68°
2026-05-06 15:05 38.54285 -9.39432 6499 ft 225 kts 66°
2026-05-06 15:05 38.54859 -9.37609 6190 ft 218 kts 66°
2026-05-06 15:05 38.55421 -9.35833 5899 ft 212 kts 66°
2026-05-06 15:06 38.55959 -9.34120 5800 ft 199 kts 65°
2026-05-06 15:06 38.56453 -9.32542 5797 ft 183 kts 65°
2026-05-06 15:06 38.56910 -9.31088 5794 ft 170 kts 65°
2026-05-06 15:06 38.57333 -9.29740 5791 ft 158 kts 66°
2026-05-06 15:07 38.57726 -9.28495 5696 ft 147 kts 65°
2026-05-06 15:07 38.58114 -9.27262 5386 ft 149 kts 64°
2026-05-06 15:07 38.58493 -9.26050 4971 ft 147 kts 65°
2026-05-06 15:07 38.58879 -9.24833 4413 ft 149 kts 60°
2026-05-06 15:08 38.59473 -9.23797 4025 ft 139 kts 36°
2026-05-06 15:08 38.60254 -9.23145 3968 ft 139 kts 19°
2026-05-06 15:08 38.61149 -9.22679 3990 ft 135 kts 20°
2026-05-06 15:08 38.61995 -9.22204 3929 ft 140 kts 18°
2026-05-06 15:09 38.62891 -9.21726 3865 ft 136 kts 20°
2026-05-06 15:09 38.63752 -9.21264 3613 ft 135 kts 17°
2026-05-06 15:09 38.64602 -9.20811 3173 ft 131 kts 18°
2026-05-06 15:09 38.65402 -9.20381 2906 ft 125 kts 19°
2026-05-06 15:10 38.66332 -9.19880 2613 ft 155 kts 20°
2026-05-06 15:10 38.67262 -9.19329 2352 ft 141 kts 19°
2026-05-06 15:10 38.68120 -9.18810 2079 ft 135 kts 19°
2026-05-06 15:10 38.68949 -9.18328 1832 ft 127 kts 19°
2026-05-06 15:11 38.69767 -9.17943 1579 ft 124 kts 12°
2026-05-06 15:11 38.70573 -9.17550 1359 ft 124 kts 12°
2026-05-06 15:11 38.71380 -9.17162 1145 ft 124 kts 15°
2026-05-06 15:11 38.72204 -9.16748 959 ft 133 kts 14°
2026-05-06 15:12 38.73023 -9.16304 987 ft 124 kts 17°
2026-05-06 15:12 38.73850 -9.15880 993 ft 129 kts 15°
2026-05-06 15:12 38.74697 -9.15416 924 ft 131 kts 19°
2026-05-06 15:12 38.75562 -9.14961 660 ft 137 kts 16°
2026-05-06 15:13 38.76402 -9.14518 399 ft 129 kts 16°
2026-05-06 15:13 38.77154 -9.14111 352 ft 102 kts 16°
2026-05-06 15:13 38.77638 -9.13867 364 ft 54 kts 22°
2026-05-06 15:13 38.77944 -9.13694 362 ft 44 kts 22°
2026-05-06 15:14 38.78209 -9.13542 363 ft 35 kts 31°
2026-05-06 15:14 38.78344 -9.13390 363 ft 18 kts 47°
2026-05-06 15:14 38.78379 -9.13317 357 ft 8 kts 92°
2026-05-06 15:14 38.78351 -9.13265 359 ft 8 kts 159°
2026-05-06 15:15 38.78293 -9.13279 357 ft 8 kts 201°
2026-05-06 15:15 38.78241 -9.13306 358 ft 8 kts 203°
2026-05-06 15:15 38.78191 -9.13332 355 ft 8 kts 202°
2026-05-06 15:15 38.78144 -9.13357 355 ft 7 kts 202°
2026-05-06 15:16 38.78101 -9.13380 353 ft 6 kts 203°
2026-05-06 15:16 38.78062 -9.13401 355 ft 6 kts 202°
2026-05-06 15:16 38.78009 -9.13413 352 ft 10 kts 171°
2026-05-06 15:16 38.77912 -9.13387 348 ft 17 kts 168°
2026-05-06 15:17 38.77787 -9.13353 339 ft 18 kts 168°
2026-05-06 15:17 38.77740 -9.13268 331 ft 12 kts 77°
2026-05-06 15:17 38.77779 -9.13210 333 ft 8 kts 353°
2026-05-06 15:17 38.77816 -9.13220 335 ft 2 kts 347°
2026-05-06 15:18 38.77836 -9.13224 336 ft 4 kts 14°
2026-05-06 15:18 38.77876 -9.13196 336 ft 6 kts 15°
2026-05-06 15:18 38.77893 -9.13190 335 ft 0 kts 14°